[[{"header":{"parameterUnit":"m.s-1","parameterCategory":2,"la1":30.2991,"la2":30.254,"lo1":-89.0895,"lo2":-89.0444,"dy":0.0017,"dx":0.0017,"nx":28,"ny":28,"refTime":"2023-10-19T09:00:00:Z","depth":"0","parameterNumber":2,"parameterNumberName":"U-component_of_CURRENTS"},"data":[0,0,0,0,0,0,0,0,0,0,0,0,0,0,0,0,0,0,0,0,0,0,0,0,0,0,0,0,0,0,0,0,0,0,0,0,0,0,0,0,0,0,0,0,0,0,0,0,0,0,0,0,0,0,0,0,0,0,0.261,0.2611,0,0.2661,0.2661,0.2661,0.2644,0.2643,0.2642,0.2642,0.2629,0.2629,0.2629,0,0,0,0,0,0,0,0,0,0,0,0,0,0.2513,0.2514,0.261,0.2611,0.2612,0.2661,0.2661,0.2661,0.2644,0.2643,0.2642,0.2641,0.2628,0.2629,0.2629,0,0,0,0,0,0,0,0,0,0,0,0,0,0.2554,0.2515,0.261,0.2613,0.2614,0.2661,0.2661,0.2661,0.2644,0.2643,0.2642,0.2641,0.2628,0.2629,0.2629,0.2653,0,0,0.2631,0.2631,0,0,0,0,0,0,0,0,0.2552,0.2557,0.2612,0.2613,0.2614,0.2649,0.2622,0.2657,0.2644,0.2628,0.2642,0.2641,0.2633,0.2633,0.2639,0.2652,0.2652,0.2631,0.2631,0.2631,0.2631,0,0,0,0,0,0,0,0.2549,0.2555,0.2626,0.2613,0.2615,0.2617,0.2621,0.2628,0.2631,0.2629,0.2629,0.2642,0.2633,0.2639,0.2639,0.2651,0.2631,0.2631,0.2631,0.2631,0.2742,0.2744,0,0,0,0,0,0,0.2553,0.2552,0.2624,0.2628,0.2585,0.262,0.2624,0.2635,0.2632,0.2633,0.2643,0.2642,0.2639,0.2638,0.2638,0.2721,0.2631,0.2631,0.2632,0.2739,0.2742,0.2745,0,0,0,0,0,0,0.255,0.2558,0.2622,0.2595,0.2603,0.2623,0.2635,0.2637,0.2647,0.2645,0.2642,0.2652,0.2638,0.2638,0.2651,0.2718,0.2632,0.2632,0.2736,0.274,0.2744,0.285,0,0,0,0,0,0,0.2547,0.2557,0.2566,0.2595,0.2605,0.2642,0.2637,0.2639,0.2658,0.2656,0.2652,0.2649,0.2637,0.265,0.2651,0.2717,0.2632,0.2732,0.2738,0.2742,0.2843,0.2857,0.2869,0,0,0,0,0,0.2543,0.2561,0.2566,0.2575,0.2617,0.2643,0.2647,0.2655,0.266,0.266,0.2667,0.265,0.2684,0.2652,0.2653,0.272,0.273,0.2736,0.2742,0.2838,0.2855,0.2869,0,0,0,0,0,0,0.2521,0.2562,0.2568,0.2596,0.2615,0.2641,0.2654,0.2663,0.2672,0.2669,0.2666,0.2665,0.2715,0.2696,0.2661,0.2769,0.2712,0.2718,0.2785,0.2801,0.2813,0.293,0.2633,0,0,0,0,0,0.2523,0.2548,0.2578,0.2601,0.2613,0.2636,0.265,0.2653,0.2669,0.2672,0.2675,0.2694,0.2743,0.2748,0.277,0.2809,0.2889,0.2859,0.2872,0.2883,0.2981,0.3181,0.3223,0.2765,0.2765,0.2765,0,0,0.2525,0.255,0.2565,0.2598,0.2616,0.2672,0.264,0.2661,0.272,0.267,0.2733,0.2735,0.2765,0.2824,0.2845,0.2811,0.3034,0.2891,0.29,0.2994,0.3192,0.3238,0.3278,0.2769,0.2768,0.2767,0,0,0.2581,0.2559,0.2624,0.2639,0.2671,0.2681,0.2692,0.2717,0.2733,0.2774,0.2792,0.2857,0.2857,0.2943,0.298,0.3084,0.3104,0.3049,0.3205,0.3395,0.3437,0.3474,0.3549,0.3594,0.3047,0.3048,0.3048,0,0.2591,0.2691,0.2641,0.271,0.2765,0.2699,0.2803,0.2794,0.2821,0.2887,0.28,0.2964,0.2956,0.315,0.3177,0.3128,0.3189,0.3134,0.3419,0.3459,0.3496,0.3565,0.3612,0.3054,0.3053,0.3052,0.3052,0,0.2745,0.2795,0.2826,0.2907,0.2924,0.2989,0.2983,0.2999,0.2994,0.3026,0.3165,0.3165,0.329,0.3275,0.3253,0.3516,0.3453,0.3418,0.3389,0.355,0.3608,0.3656,0.3062,0.306,0.3058,0.3057,0,0,0.2902,0.2941,0.2958,0.3018,0.3054,0.308,0.316,0.3268,0.3349,0.3346,0.3519,0.3601,0.3603,0.3654,0.3637,0.3781,0.4032,0.3709,0.3716,0.3801,0.4387,0.4299,0.434,0.404,0.4051,0.406,0.4291,0,0.3085,0.3219,0.3221,0.3356,0.3437,0.3406,0.3483,0.3529,0.3542,0.3639,0.3705,0.3804,0.3738,0.3778,0.394,0.3997,0.4178,0.397,0.4209,0.4216,0.4136,0.4403,0.4306,0.4505,0.4338,0.4346,0.4351,0,0.3318,0.3368,0.3523,0.3594,0.3632,0.3684,0.3808,0.3861,0.3952,0.3968,0.4102,0.4092,0.43,0.4191,0.4499,0.4354,0.4444,0.4479,0.4488,0.4437,0.4224,0.4335,0.4598,0.4473,0.4425,0.4419,0.4414,0,0.3477,0.3607,0.3727,0.3755,0.3803,0.3884,0.392,0.3988,0.4017,0.4176,0.4194,0.4432,0.4472,0.4695,0.471,0.4646,0.5001,0.4913,0.4946,0.4931,0.4927,0.4897,0.514,0.5269,0.5268,0.5268,0.5267,0,0.3687,0.3778,0.3792,0.3837,0.3954,0.3986,0.4094,0.4143,0.4224,0.4265,0.436,0.4421,0.4607,0.4744,0.4848,0.502,0.5132,0.5092,0.5062,0.4941,0.4912,0.4858,0.4811,0.5276,0.5274,0.5273,0.5271,0,0.3771,0.3815,0.3913,0.3984,0.4,0.4053,0.4074,0.4129,0.4218,0.4277,0.4321,0.4447,0.4634,0.478,0.5071,0.5131,0.5233,0.5377,0.5151,0.5097,0.5013,0.4974,0.5065,0.4952,0.5523,0.5523,0.5523,0,0.3801,0.3869,0.3923,0.3931,0.3943,0.4002,0.4015,0.4097,0.4124,0.4257,0.4284,0.4471,0.4565,0.4916,0.5126,0.5383,0.5233,0.5409,0.5344,0.5114,0.5051,0.4786,0.4663,0.5328,0.5327,0.5326,0.5325,0,0.3821,0.3836,0.3861,0.3869,0.3886,0.389,0.3928,0.3934,0.4034,0.4094,0.4181,0.4289,0.462,0.4826,0.5139,0.5291,0.5193,0.5394,0.5292,0.5102,0.4712,0.4544,0.4956,0.5315,0.5316,0.5317,0.5318,0.5318,0.3773,0.3764,0.3778,0.3774,0.3781,0.3754,0.3722,0.3771,0.3792,0.3854,0.4035,0.417,0.4559,0.5,0.5085,0.5222,0.5158,0.5185,0.5203,0.4985,0.478,0.5119,0.5345,0.5346,0.5347,0.5348,0.5348,0,0.3675,0.3672,0.3674,0.3641,0.3596,0.3641,0.3628,0.3584,0.356,0.3716,0.3805,0.4177,0.4472,0.4774,0.514,0.5073,0.4848,0.4957,0.4621,0.4549,0.5019,0.4911,0.4888,0.4888,0.4888,0.4888,0.4889,0.4889,0.3621,0.3576,0.3571,0.3457,0.3433,0.3335,0.3303,0.3266,0.3338,0.343,0.3602,0.3802,0.4283,0.484,0.4987,0.4914,0.4595,0.4418,0.4356,0.4739,0.4759,0.4778,0.4665,0.4591,0.4591,0.3693,0.3688,0.3683]},{"header":{"parameterUnit":"m.s-1","parameterCategory":2,"la1":30.2991,"la2":30.254,"lo1":-89.0895,"lo2":-89.0444,"dy":0.0017,"dx":0.0017,"nx":28,"ny":28,"refTime":"2023-10-19T09:00:00:Z","depth":"0","parameterNumber":3,"parameterNumberName":"V-component_of_CURRENTS"},"data":[0,0,0,0,0,0,0,0,0,0,0,0,0,0,0,0,0,0,0,0,0,0,0,0,0,0,0,0,0,0,0,0,0,0,0,0,0,0,0,0,0,0,0,0,0,0,0,0,0,0,0,0,0,0,0,0,0,0,-0.0378,-0.0378,0,-0.0419,-0.0419,-0.042,-0.0472,-0.0473,-0.0473,-0.0474,-0.0579,-0.0581,-0.0583,0,0,0,0,0,0,0,0,0,0,0,0,0,-0.0434,-0.0432,-0.0378,-0.0378,-0.0379,-0.0419,-0.0419,-0.042,-0.0472,-0.0473,-0.0474,-0.0474,-0.0578,-0.0581,-0.0583,0,0,0,0,0,0,0,0,0,0,0,0,0,-0.0436,-0.0432,-0.0378,-0.0409,-0.0412,-0.0419,-0.0419,-0.042,-0.0471,-0.0473,-0.0474,-0.0475,-0.0578,-0.0581,-0.0584,-0.0578,0,0,-0.0593,-0.0594,0,0,0,0,0,0,0,0,-0.0436,-0.0434,-0.0404,-0.0407,-0.0411,-0.0441,-0.0478,-0.0476,-0.0471,-0.0449,-0.0474,-0.0476,-0.0538,-0.0544,-0.0549,-0.0583,-0.0588,-0.0593,-0.0595,-0.0596,-0.0597,0,0,0,0,0,0,0,-0.0435,-0.0433,-0.0394,-0.0404,-0.0408,-0.0452,-0.0453,-0.0478,-0.0488,-0.0451,-0.0455,-0.0459,-0.054,-0.0546,-0.0552,-0.0589,-0.0593,-0.0596,-0.0598,-0.0599,-0.061,-0.0609,0,0,0,0,0,0,-0.0423,-0.0432,-0.0393,-0.0396,-0.0426,-0.045,-0.0451,-0.043,-0.0486,-0.0495,-0.0458,-0.0461,-0.054,-0.0548,-0.0556,-0.0504,-0.0596,-0.0599,-0.0601,-0.0612,-0.061,-0.0608,0,0,0,0,0,0,-0.0424,-0.0418,-0.0391,-0.0417,-0.0416,-0.0447,-0.0424,-0.0431,-0.0434,-0.049,-0.0501,-0.0454,-0.0541,-0.0552,-0.057,-0.0511,-0.0601,-0.0604,-0.0614,-0.0611,-0.0609,-0.0432,0,0,0,0,0,0,-0.0425,-0.0417,-0.0401,-0.0414,-0.0414,-0.0378,-0.0423,-0.043,-0.0434,-0.0439,-0.0491,-0.0502,-0.0543,-0.0565,-0.0573,-0.0516,-0.0606,-0.0616,-0.0612,-0.061,-0.044,-0.0424,-0.041,0,0,0,0,0,-0.0426,-0.0384,-0.04,-0.0396,-0.0389,-0.0377,-0.038,-0.0409,-0.0433,-0.0419,-0.046,-0.05,-0.0552,-0.0566,-0.0576,-0.0519,-0.0617,-0.0613,-0.061,-0.0446,-0.0427,-0.0411,0,0,0,0,0,0,-0.0388,-0.0386,-0.0403,-0.036,-0.0366,-0.0385,-0.0376,-0.0397,-0.0418,-0.0428,-0.0486,-0.0499,-0.0494,-0.0537,-0.0551,-0.0517,-0.0589,-0.0587,-0.0461,-0.0443,-0.0429,-0.0312,-0.0608,0,0,0,0,0,-0.0374,-0.035,-0.0358,-0.0326,-0.0325,-0.0351,-0.0353,-0.0369,-0.0389,-0.0399,-0.0437,-0.0473,-0.0485,-0.049,-0.0523,-0.0501,-0.0472,-0.0472,-0.0457,-0.0444,-0.0357,-0.0203,-0.0162,-0.0597,-0.0597,-0.0597,0,0,-0.0349,-0.0348,-0.0333,-0.0319,-0.0328,-0.0295,-0.0354,-0.0343,-0.0312,-0.0408,-0.0386,-0.0432,-0.0474,-0.0451,-0.045,-0.0477,-0.0337,-0.044,-0.0427,-0.0346,-0.0194,-0.0151,-0.0112,-0.0594,-0.0595,-0.0595,0,0,-0.0268,-0.0286,-0.023,-0.0233,-0.0238,-0.0255,-0.0246,-0.0261,-0.0265,-0.0261,-0.0309,-0.0289,-0.0355,-0.0321,-0.0325,-0.0242,-0.0272,-0.0294,-0.0105,0.0042,0.0083,0.0118,0.0093,0.0126,-0.0273,-0.0272,-0.0272,0,-0.0231,-0.0158,-0.0213,-0.0166,-0.0141,-0.0225,-0.0147,-0.0172,-0.0192,-0.0145,-0.0238,-0.0199,-0.0262,-0.0135,-0.0123,-0.0194,-0.0177,-0.0168,0.0073,0.0109,0.0143,0.011,0.0144,-0.0264,-0.0265,-0.0265,-0.0266,0,-0.0091,-0.0055,-0.0024,0.0012,0.0016,0.0066,0.003,0.004,0.0003,0.001,0.0092,0.0032,0.0088,0.0045,-0.0022,0.0187,0.0088,0.0067,0.0048,0.02,0.0149,0.0182,-0.0251,-0.0254,-0.0257,-0.0259,0,0,0.0092,0.0084,0.0101,0.0142,0.0128,0.016,0.02,0.0274,0.036,0.0314,0.0472,0.0439,0.0434,0.0436,0.0373,0.0486,0.0656,0.0388,0.0391,0.0397,0.0877,0.0747,0.0767,0.0693,0.0702,0.071,0.0704,0,0.0247,0.0354,0.0322,0.0437,0.0498,0.0441,0.0501,0.0531,0.0534,0.0637,0.0639,0.0714,0.057,0.0606,0.0711,0.0686,0.077,0.0653,0.0702,0.0702,0.0604,0.0815,0.0772,0.0765,0.0735,0.074,0.0744,0,0.0444,0.0482,0.061,0.0669,0.0701,0.0749,0.0869,0.091,0.0998,0.101,0.1109,0.1073,0.1206,0.1056,0.1175,0.1105,0.1033,0.099,0.0989,0.0867,0.0643,0.0629,0.0824,0.0507,0.0793,0.079,0.0786,0,0.0615,0.071,0.0816,0.0832,0.0868,0.0947,0.0986,0.1056,0.1117,0.1268,0.1334,0.1464,0.1508,0.1543,0.1381,0.1321,0.1478,0.1375,0.1181,0.116,0.1142,0.1108,0.1097,0.1524,0.1524,0.1524,0.1524,0,0.0799,0.0887,0.0905,0.0952,0.1099,0.1102,0.1263,0.1307,0.1423,0.1539,0.1548,0.1659,0.1651,0.1672,0.1544,0.1457,0.1607,0.1296,0.1231,0.1176,0.1147,0.088,0.068,0.1523,0.1524,0.1524,0.1524,0,0.0906,0.0934,0.104,0.112,0.1156,0.1247,0.1341,0.1453,0.1555,0.1713,0.1767,0.1852,0.19,0.1804,0.1819,0.1633,0.1394,0.1483,0.1321,0.1243,0.0769,0.0579,0.0614,0.0428,0.1326,0.1324,0.1322,0,0.0944,0.1014,0.1109,0.1157,0.1182,0.1303,0.1377,0.1489,0.1593,0.1807,0.1899,0.2003,0.2077,0.2002,0.1776,0.1588,0.1321,0.1331,0.1258,0.0822,0.0564,0.0492,0.0326,0.1222,0.122,0.1218,0.1216,0,0.099,0.1025,0.1082,0.1183,0.1271,0.1374,0.1503,0.1604,0.1762,0.1914,0.2112,0.2219,0.2151,0.202,0.1733,0.1546,0.1088,0.128,0.0971,0.0645,0.0444,0.02,0.0989,0.1199,0.1201,0.1202,0.1203,0.1204,0.0989,0.1028,0.1106,0.1206,0.1305,0.1447,0.1555,0.1713,0.1906,0.2182,0.2254,0.2484,0.2255,0.192,0.1546,0.0879,0.0929,0.0672,0.051,0.0502,0.0279,0.0943,0.0996,0.0996,0.0997,0.0997,0.0998,0,0.0983,0.1041,0.1123,0.1255,0.1368,0.143,0.1635,0.1774,0.2009,0.2312,0.2513,0.266,0.2139,0.1657,0.0816,0.0246,0.0053,-0.0074,-0.0172,-0.0284,0.0448,0.0393,0.0151,0.0151,0.0152,0.0152,0.0152,0.0153,0.0985,0.1057,0.1113,0.1288,0.1386,0.1569,0.1696,0.1919,0.2176,0.2613,0.2918,0.3143,0.2933,0.1234,-0.0044,-0.0431,-0.0902,-0.0934,-0.1174,-0.0718,-0.0661,-0.0606,-0.0699,-0.1166,-0.1168,-0.1819,-0.1826,-0.1832]}],[{"header":{"parameterUnit":"m.s-1","parameterCategory":2,"la1":30.2991,"la2":30.254,"lo1":-89.0895,"lo2":-89.0444,"dy":0.0017,"dx":0.0017,"nx":28,"ny":28,"refTime":"2023-10-19T09:00:00:Z","depth":"2","parameterNumber":2,"parameterNumberName":"U-component_of_CURRENTS"},"data":[0,0,0,0,0,0,0,0,0,0,0,0,0,0,0,0,0,0,0,0,0,0,0,0,0,0,0,0,0,0,0,0,0,0,0,0,0,0,0,0,0,0,0,0,0,0,0,0,0,0,0,0,0,0,0,0,0,0,0.218,0.2181,0,0.2221,0.2221,0.2222,0.2241,0.2241,0.2242,0.2242,0.2253,0.2253,0.2253,0,0,0,0,0,0,0,0,0,0,0,0,0,0.2197,0.2196,0.218,0.2181,0.2182,0.2221,0.2221,0.2222,0.2241,0.2241,0.2242,0.2242,0.2253,0.2253,0.2253,0,0,0,0,0,0,0,0,0,0,0,0,0,0.2206,0.2195,0.218,0.2198,0.2201,0.2221,0.2221,0.2222,0.2241,0.2241,0.2242,0.2242,0.2253,0.2253,0.2253,0.2244,0,0,0.2253,0.2253,0,0,0,0,0,0,0,0,0.2205,0.2205,0.2195,0.2197,0.22,0.2229,0.2232,0.2229,0.2241,0.2222,0.2242,0.2242,0.2244,0.2245,0.2247,0.2245,0.2245,0.2253,0.2253,0.2253,0.2253,0,0,0,0,0,0,0,0.2204,0.2203,0.2193,0.2196,0.2199,0.2232,0.2233,0.2231,0.2227,0.2224,0.2226,0.2236,0.2244,0.2247,0.2248,0.2246,0.2253,0.2253,0.2253,0.2253,0.2289,0.2289,0,0,0,0,0,0,0.2201,0.2202,0.2192,0.2195,0.2207,0.2231,0.2232,0.2217,0.2228,0.2231,0.2235,0.2237,0.2247,0.2247,0.2248,0.2293,0.2253,0.2253,0.2253,0.2288,0.2289,0.229,0,0,0,0,0,0,0.2201,0.2198,0.219,0.2204,0.2205,0.223,0.2213,0.2217,0.2236,0.2238,0.224,0.2252,0.2247,0.2248,0.2258,0.2291,0.2253,0.2253,0.2287,0.2288,0.2289,0.2347,0,0,0,0,0,0,0.22,0.2197,0.22,0.2202,0.2205,0.22,0.2214,0.2218,0.2242,0.2244,0.2252,0.2253,0.2248,0.2258,0.2258,0.229,0.2253,0.2285,0.2287,0.2289,0.2344,0.235,0.2356,0,0,0,0,0,0.22,0.2193,0.2199,0.2199,0.2201,0.2201,0.2204,0.2223,0.2243,0.2243,0.2257,0.2254,0.2269,0.2258,0.2258,0.2292,0.2284,0.2287,0.2289,0.2341,0.2349,0.2356,0,0,0,0,0,0,0.2207,0.2195,0.2201,0.2192,0.2199,0.2205,0.2218,0.2232,0.2245,0.2256,0.2258,0.2258,0.228,0.2274,0.2262,0.2307,0.228,0.2282,0.232,0.2327,0.2333,0.2349,0.2253,0,0,0,0,0,0.2208,0.219,0.2195,0.2188,0.2195,0.2211,0.2222,0.2232,0.2241,0.2249,0.2255,0.2269,0.2286,0.2297,0.2297,0.2319,0.2332,0.2342,0.2348,0.2353,0.2366,0.2445,0.2461,0.2297,0.2297,0.2297,0,0,0.2208,0.2201,0.2192,0.2188,0.2198,0.221,0.2218,0.2231,0.2254,0.2247,0.2277,0.2282,0.2293,0.2318,0.2329,0.2321,0.2396,0.2356,0.236,0.2371,0.245,0.2466,0.248,0.2298,0.2298,0.2298,0,0,0.2194,0.2194,0.2179,0.2191,0.2208,0.2218,0.2226,0.224,0.2261,0.2283,0.2295,0.2323,0.2334,0.2359,0.2373,0.2412,0.2419,0.2413,0.2466,0.2543,0.2557,0.2571,0.2568,0.2581,0.2424,0.2424,0.2424,0,0.2186,0.218,0.2179,0.2185,0.2202,0.2224,0.2234,0.2259,0.2277,0.2308,0.2297,0.2359,0.236,0.2425,0.2439,0.2428,0.245,0.2439,0.2553,0.2567,0.258,0.2574,0.2587,0.2427,0.2427,0.2426,0.2426,0,0.2173,0.2182,0.218,0.2188,0.2206,0.2216,0.2253,0.2286,0.2317,0.2347,0.2408,0.2417,0.247,0.2469,0.2468,0.2562,0.2536,0.2547,0.254,0.26,0.2589,0.2602,0.2431,0.243,0.2429,0.2429,0,0,0.2107,0.2152,0.2154,0.2183,0.2212,0.2229,0.228,0.2333,0.2402,0.2421,0.2506,0.253,0.2562,0.258,0.259,0.2644,0.2732,0.2642,0.2645,0.2645,0.286,0.2822,0.2831,0.2781,0.2785,0.2788,0.2801,0,0.2091,0.2118,0.2134,0.2176,0.2209,0.2253,0.2314,0.2377,0.2429,0.2517,0.2562,0.2637,0.2601,0.2652,0.2702,0.2736,0.2777,0.2724,0.2796,0.2796,0.2764,0.285,0.2642,0.2638,0.2814,0.2816,0.2817,0,0.2073,0.2107,0.2136,0.2223,0.224,0.2273,0.2389,0.2437,0.2564,0.2625,0.2705,0.2745,0.2831,0.2803,0.2888,0.2864,0.2872,0.2876,0.2878,0.2839,0.2786,0.2614,0.2655,0.2839,0.2837,0.2836,0.2834,0,0.2055,0.2109,0.2137,0.2159,0.2254,0.23,0.2361,0.2481,0.2553,0.2708,0.2793,0.288,0.2955,0.2993,0.2999,0.2972,0.3078,0.3042,0.2996,0.2989,0.2823,0.2798,0.3115,0.3115,0.3115,0.3115,0.3115,0,0.2025,0.2068,0.2148,0.2167,0.226,0.2324,0.2415,0.252,0.2658,0.2762,0.2858,0.2956,0.302,0.3077,0.3057,0.307,0.3133,0.3024,0.302,0.283,0.2807,0.2995,0.2981,0.3115,0.3115,0.3115,0.3115,0,0.1997,0.2038,0.2088,0.219,0.2247,0.2311,0.2445,0.2521,0.2676,0.2819,0.2885,0.3045,0.3128,0.3143,0.3203,0.3151,0.316,0.3143,0.2879,0.2846,0.2986,0.2974,0.3089,0.3089,0.3088,0.3088,0.3087,0,0.1965,0.1992,0.2091,0.213,0.2175,0.2282,0.237,0.2531,0.2606,0.2855,0.2926,0.308,0.3133,0.319,0.3163,0.3126,0.3169,0.2914,0.2837,0.3014,0.2998,0.2987,0.2976,0.2602,0.2598,0.2594,0.2591,0,0.1913,0.1948,0.1985,0.2076,0.2156,0.2237,0.2368,0.2434,0.2623,0.2719,0.2845,0.2909,0.3047,0.2944,0.2973,0.2919,0.2905,0.2843,0.3143,0.2658,0.2562,0.2543,0.2548,0.256,0.2563,0.2565,0.2567,0.2568,0.1855,0.1869,0.1912,0.1999,0.209,0.2164,0.2194,0.229,0.2361,0.2475,0.263,0.2655,0.2762,0.268,0.262,0.2596,0.2765,0.2632,0.264,0.2652,0.2612,0.2522,0.25,0.2502,0.2504,0.2506,0.2508,0,0.175,0.1794,0.1845,0.1914,0.1958,0.2063,0.2171,0.2129,0.2122,0.2263,0.2289,0.2147,0.216,0.2281,0.2207,0.2224,0.2162,0.2137,0.2039,0.2074,0.2104,0.2032,0.1768,0.1765,0.1762,0.176,0,0,0.1688,0.1691,0.1729,0.1761,0.183,0.1858,0.189,0.1825,0.1873,0.1774,0.1797,0.1998,0.2198,0.1925,0.1932,0.1846,0.1928,0.1775,0.2378,0.2298,0.2324,0.2413,0.2346,0,0,0,0,0]},{"header":{"parameterUnit":"m.s-1","parameterCategory":2,"la1":30.2991,"la2":30.254,"lo1":-89.0895,"lo2":-89.0444,"dy":0.0017,"dx":0.0017,"nx":28,"ny":28,"refTime":"2023-10-19T09:00:00:Z","depth":"2","parameterNumber":3,"parameterNumberName":"V-component_of_CURRENTS"},"data":[0,0,0,0,0,0,0,0,0,0,0,0,0,0,0,0,0,0,0,0,0,0,0,0,0,0,0,0,0,0,0,0,0,0,0,0,0,0,0,0,0,0,0,0,0,0,0,0,0,0,0,0,0,0,0,0,0,0,-0.0093,-0.0094,0,-0.0166,-0.0167,-0.0168,-0.0229,-0.0229,-0.023,-0.023,-0.0341,-0.0343,-0.0346,0,0,0,0,0,0,0,0,0,0,0,0,0,-0.016,-0.0157,-0.0093,-0.0094,-0.0095,-0.0166,-0.0167,-0.0168,-0.0229,-0.0229,-0.023,-0.0231,-0.034,-0.0343,-0.0346,0,0,0,0,0,0,0,0,0,0,0,0,0,-0.0172,-0.0157,-0.0093,-0.0133,-0.0137,-0.0166,-0.0167,-0.0169,-0.0228,-0.0229,-0.023,-0.0231,-0.0339,-0.0343,-0.0346,-0.035,0,0,-0.0357,-0.0359,0,0,0,0,0,0,0,0,-0.0171,-0.0169,-0.0126,-0.013,-0.0135,-0.0189,-0.0232,-0.0231,-0.0228,-0.0194,-0.023,-0.0231,-0.0293,-0.03,-0.0312,-0.0356,-0.036,-0.0358,-0.036,-0.0361,-0.0362,0,0,0,0,0,0,0,-0.017,-0.0167,-0.0122,-0.0127,-0.0133,-0.0201,-0.0202,-0.0232,-0.0239,-0.0197,-0.0202,-0.0209,-0.0296,-0.0308,-0.0315,-0.0362,-0.0358,-0.0361,-0.0363,-0.0364,-0.0436,-0.0436,0,0,0,0,0,0,-0.015,-0.0165,-0.012,-0.0125,-0.0155,-0.0198,-0.02,-0.0171,-0.0238,-0.0248,-0.0208,-0.0211,-0.0302,-0.0311,-0.0319,-0.0338,-0.0361,-0.0365,-0.0367,-0.0436,-0.0436,-0.0436,0,0,0,0,0,0,-0.015,-0.0144,-0.0117,-0.0149,-0.0151,-0.0195,-0.0163,-0.0172,-0.019,-0.0245,-0.0257,-0.0218,-0.0303,-0.0314,-0.0346,-0.0342,-0.0366,-0.037,-0.0437,-0.0436,-0.0436,-0.0368,0,0,0,0,0,0,-0.0151,-0.0142,-0.0127,-0.0146,-0.0148,-0.0129,-0.0163,-0.0173,-0.0193,-0.0198,-0.0257,-0.0268,-0.0305,-0.034,-0.0349,-0.0348,-0.0372,-0.0437,-0.0437,-0.0436,-0.0371,-0.0366,-0.0361,0,0,0,0,0,-0.0153,-0.0117,-0.0125,-0.0121,-0.0119,-0.0128,-0.0135,-0.0173,-0.0192,-0.0194,-0.0234,-0.0267,-0.0344,-0.0342,-0.0353,-0.0353,-0.0437,-0.0437,-0.0436,-0.0373,-0.0367,-0.0361,0,0,0,0,0,0,-0.0142,-0.012,-0.0129,-0.009,-0.0108,-0.0138,-0.0144,-0.0168,-0.0201,-0.0209,-0.0262,-0.0275,-0.0301,-0.0335,-0.0332,-0.0372,-0.0397,-0.0398,-0.0345,-0.0339,-0.0335,-0.0323,-0.0375,0,0,0,0,0,-0.0128,-0.0089,-0.0101,-0.0071,-0.0077,-0.0111,-0.0124,-0.0145,-0.0173,-0.0189,-0.0229,-0.0272,-0.0306,-0.0328,-0.0362,-0.0382,-0.0422,-0.039,-0.0385,-0.0381,-0.0379,-0.0439,-0.0439,-0.0434,-0.0434,-0.0434,0,0,-0.0114,-0.01,-0.0079,-0.0067,-0.0084,-0.0085,-0.0121,-0.0128,-0.0135,-0.0195,-0.0216,-0.0255,-0.0307,-0.033,-0.0345,-0.0359,-0.0401,-0.038,-0.0376,-0.0377,-0.0439,-0.0439,-0.044,-0.0434,-0.0434,-0.0434,0,0,-0.0081,-0.0054,-0.0028,-0.0033,-0.005,-0.0066,-0.0065,-0.0093,-0.0111,-0.0132,-0.0178,-0.0214,-0.0263,-0.0301,-0.0327,-0.0316,-0.037,-0.0327,-0.0298,-0.0356,-0.0357,-0.0358,-0.0395,-0.04,-0.0328,-0.0328,-0.0328,0,-0.0066,-0.0032,-0.0028,-0.0018,-0.0019,-0.0051,-0.0043,-0.0061,-0.0098,-0.0111,-0.0129,-0.0208,-0.025,-0.0288,-0.0284,-0.0305,-0.0342,-0.0314,-0.0349,-0.0352,-0.0354,-0.0392,-0.0399,-0.0325,-0.0325,-0.0325,-0.0326,0,-0.0035,-0.0009,0.0006,0.002,0.0019,0.0027,0.0006,-0.0004,-0.0028,-0.0055,-0.0093,-0.0151,-0.02,-0.0218,-0.0248,-0.0285,-0.0305,-0.0333,-0.0361,-0.0351,-0.0391,-0.0399,-0.032,-0.0321,-0.0322,-0.0323,0,0,-0.0001,0.0029,0.0029,0.004,0.0043,0.0047,0.0049,0.0034,0.0029,-0.0014,-0.003,-0.0092,-0.0129,-0.0161,-0.0208,-0.0257,-0.0301,-0.0297,-0.0302,-0.0329,-0.0417,-0.0407,-0.0416,-0.0339,-0.034,-0.0341,-0.0433,0,0.0016,0.0055,0.0062,0.0089,0.0102,0.0094,0.0101,0.0084,0.0061,0.0039,-0.0026,-0.0058,-0.0106,-0.0129,-0.0185,-0.027,-0.0322,-0.0273,-0.0428,-0.0432,-0.0422,-0.0425,-0.0391,-0.0467,-0.0441,-0.0443,-0.0444,0,0.0018,0.0049,0.009,0.0126,0.0131,0.0142,0.015,0.0155,0.0121,0.01,0.0053,0.0005,-0.0063,-0.0108,-0.0252,-0.0219,-0.0312,-0.0382,-0.0388,-0.0409,-0.0438,-0.0478,-0.0484,-0.0458,-0.0457,-0.0456,-0.0455,0,0.0019,0.006,0.0102,0.0115,0.0151,0.0162,0.0175,0.0163,0.0187,0.0136,0.0142,0.0041,0.0015,-0.0126,-0.0252,-0.0263,-0.0408,-0.0447,-0.0527,-0.0527,-0.0544,-0.0543,-0.0562,-0.0562,-0.0561,-0.0561,-0.0561,0,0.0033,0.0054,0.0103,0.0128,0.0167,0.0179,0.022,0.021,0.0225,0.0279,0.0175,0.0194,0.0009,-0.0082,-0.0235,-0.0389,-0.04,-0.0522,-0.0554,-0.0517,-0.0512,-0.0544,-0.0541,-0.0564,-0.0564,-0.0563,-0.0562,0,0.0025,0.0058,0.0109,0.0163,0.0173,0.0203,0.0276,0.0317,0.0308,0.0376,0.0372,0.031,0.0191,0.0002,-0.0205,-0.0337,-0.0511,-0.0567,-0.0494,-0.0517,-0.06,-0.0592,-0.0681,-0.0682,-0.0682,-0.0683,-0.0683,0,0.0037,0.0063,0.0142,0.0187,0.0214,0.0265,0.0318,0.0346,0.0419,0.0471,0.0522,0.0432,0.0396,0.0087,-0.0179,-0.0457,-0.0494,-0.0592,-0.0616,-0.0592,-0.0615,-0.0606,-0.0598,-0.0612,-0.0612,-0.0612,-0.0611,0,0.0067,0.0095,0.0152,0.0245,0.0309,0.0397,0.0479,0.0553,0.063,0.0677,0.0757,0.0726,0.0453,0.0193,-0.0181,-0.0362,-0.0551,-0.0595,-0.0606,-0.0575,-0.0531,-0.0551,-0.0545,-0.0609,-0.0609,-0.061,-0.061,-0.061,0.0101,0.0151,0.0241,0.0327,0.0416,0.055,0.0647,0.075,0.0876,0.098,0.0938,0.089,0.0589,0.0113,-0.0192,-0.0516,-0.053,-0.0643,-0.0642,-0.0643,-0.0606,-0.0564,-0.0641,-0.0641,-0.0642,-0.0642,-0.0642,0,0.0169,0.0229,0.0322,0.0457,0.0587,0.0612,0.0785,0.0887,0.1056,0.1103,0.1131,0.0859,0.0547,0.0202,-0.0277,-0.0567,-0.0592,-0.0643,-0.0617,-0.0618,-0.0619,-0.058,-0.0609,-0.061,-0.061,-0.061,0,0,0.0214,0.0316,0.0371,0.0595,0.0698,0.089,0.1009,0.1123,0.1197,0.1231,0.1197,0.1071,0.0659,0.033,-0.0073,-0.0335,-0.04,-0.038,-0.038,-0.0303,-0.0299,-0.0598,-0.0537,0,0,0,0,0]}],[{"header":{"parameterUnit":"m.s-1","parameterCategory":2,"la1":30.2991,"la2":30.254,"lo1":-89.0895,"lo2":-89.0444,"dy":0.0017,"dx":0.0017,"nx":28,"ny":28,"refTime":"2023-10-19T09:00:00:Z","depth":"4","parameterNumber":2,"parameterNumberName":"U-component_of_CURRENTS"},"data":[0,0,0,0,0,0,0,0,0,0,0,0,0,0,0,0,0,0,0,0,0,0,0,0,0,0,0,0,0,0,0,0,0,0,0,0,0,0,0,0,0,0,0,0,0,0,0,0,0,0,0,0,0,0,0,0,0,0,0.1078,0.1079,0,0.1184,0.1185,0.1186,0.1249,0.125,0.125,0.1251,0.131,0.1311,0.1312,0,0,0,0,0,0,0,0,0,0,0,0,0,0.0912,0.0914,0.1077,0.1079,0.1081,0.1184,0.1185,0.1186,0.1249,0.125,0.125,0.1251,0.131,0.1311,0.1312,0,0,0,0,0,0,0,0,0,0,0,0,0,0.0994,0.0915,0.1077,0.1127,0.1133,0.1184,0.1185,0.1187,0.1249,0.125,0.1251,0.1251,0.1309,0.1311,0.1312,0.1303,0,0,0.1317,0.1317,0,0,0,0,0,0,0,0,0.0989,0.1,0.1118,0.1124,0.1131,0.1208,0.1149,0.1225,0.1248,0.1201,0.1251,0.1252,0.1273,0.1278,0.1291,0.1306,0.1309,0.1317,0.1318,0.1319,0.1319,0,0,0,0,0,0,0,0.0984,0.0995,0.1116,0.112,0.1128,0.1139,0.1152,0.1163,0.1227,0.1205,0.1211,0.1228,0.1276,0.1289,0.1293,0.1309,0.1317,0.1318,0.1319,0.132,0.1422,0.1423,0,0,0,0,0,0,0.0978,0.099,0.1113,0.112,0.1065,0.1142,0.1155,0.1179,0.1228,0.1238,0.1227,0.1231,0.1286,0.1291,0.1295,0.1381,0.1318,0.132,0.1321,0.142,0.1422,0.1424,0,0,0,0,0,0,0.0974,0.0988,0.1108,0.106,0.1076,0.1144,0.117,0.1181,0.1229,0.1246,0.1254,0.1268,0.1287,0.1293,0.1338,0.138,0.1321,0.1322,0.1418,0.1421,0.1423,0.1493,0,0,0,0,0,0,0.0969,0.0986,0.1019,0.106,0.1079,0.1162,0.117,0.1182,0.1238,0.1244,0.1283,0.1288,0.1288,0.1336,0.134,0.1381,0.1323,0.1415,0.1419,0.1422,0.1488,0.1497,0.1505,0,0,0,0,0,0.0963,0.1004,0.102,0.1036,0.1116,0.1164,0.1175,0.1222,0.1239,0.1267,0.1295,0.1288,0.136,0.1339,0.1343,0.1385,0.1414,0.1418,0.1422,0.1484,0.1495,0.1505,0,0,0,0,0,0,0.0951,0.1016,0.1034,0.1094,0.1135,0.1176,0.1216,0.124,0.1285,0.1298,0.1307,0.1314,0.1372,0.1367,0.1343,0.1425,0.1387,0.1392,0.1434,0.1444,0.1453,0.1437,0.1324,0,0,0,0,0,0.0961,0.1013,0.106,0.1111,0.1133,0.1177,0.121,0.1238,0.1276,0.1299,0.1329,0.1358,0.1386,0.1406,0.1428,0.1468,0.1458,0.1499,0.1508,0.1515,0.1506,0.1532,0.1542,0.1437,0.1437,0.1437,0,0,0.0965,0.1015,0.1041,0.1112,0.1148,0.1185,0.1199,0.1256,0.1291,0.1295,0.1364,0.1391,0.1404,0.1456,0.1481,0.1461,0.1545,0.152,0.1527,0.1513,0.1537,0.1547,0.1556,0.144,0.144,0.1439,0,0,0.0989,0.1047,0.1088,0.1126,0.1193,0.1219,0.1241,0.1299,0.1334,0.1389,0.1408,0.1459,0.1502,0.1526,0.1537,0.1604,0.159,0.1621,0.1653,0.1679,0.1688,0.1695,0.171,0.1718,0.1625,0.1625,0.1625,0,0.1001,0.1052,0.1106,0.115,0.1185,0.1235,0.1268,0.1309,0.1378,0.141,0.142,0.1511,0.153,0.1586,0.1616,0.1624,0.1631,0.1612,0.169,0.1696,0.1702,0.1716,0.1724,0.1629,0.1628,0.1628,0.1628,0,0.1031,0.1086,0.1115,0.1186,0.123,0.1273,0.1325,0.138,0.1427,0.1465,0.1545,0.1579,0.1632,0.1656,0.1655,0.1721,0.171,0.1698,0.166,0.1717,0.1729,0.1735,0.1634,0.1633,0.1632,0.1631,0,0,0.1015,0.1117,0.113,0.116,0.1251,0.1282,0.1354,0.1421,0.147,0.1542,0.1602,0.1668,0.1703,0.1718,0.1741,0.1764,0.1827,0.1755,0.1755,0.1764,0.1884,0.1796,0.1794,0.1833,0.1834,0.1835,0.1879,0,0.1021,0.1095,0.1152,0.1214,0.1244,0.1318,0.1375,0.1448,0.1516,0.1591,0.1644,0.1717,0.1722,0.1766,0.1792,0.1825,0.1846,0.1815,0.1832,0.1832,0.1741,0.18,0.1839,0.1884,0.1886,0.1887,0.1888,0,0.1017,0.107,0.113,0.1217,0.1239,0.1293,0.1392,0.1452,0.1566,0.1623,0.1708,0.1759,0.1839,0.1821,0.1893,0.1877,0.1884,0.1891,0.1893,0.1783,0.1755,0.1812,0.1899,0.1898,0.1898,0.1897,0.1896,0,0.0947,0.1049,0.1097,0.1127,0.1236,0.1287,0.1355,0.1469,0.1529,0.1662,0.1724,0.1814,0.1879,0.1905,0.1949,0.193,0.2002,0.1975,0.1895,0.1889,0.1922,0.1914,0.2001,0.2001,0.2001,0.2001,0.2001,0,0.0916,0.095,0.1074,0.1095,0.1156,0.1252,0.1338,0.142,0.1548,0.1628,0.1743,0.1814,0.1904,0.1964,0.1971,0.1964,0.2028,0.1902,0.1896,0.1953,0.1948,0.1927,0.1918,0.2002,0.2002,0.2002,0.2001,0,0.0827,0.0908,0.096,0.1082,0.1125,0.1171,0.1324,0.1385,0.1521,0.1631,0.1684,0.1837,0.1929,0.1991,0.2048,0.1991,0.1993,0.1968,0.2038,0.2034,0.1851,0.1846,0.1871,0.1868,0.1866,0.1864,0.1862,0,0.0788,0.0809,0.0932,0.097,0.1034,0.1129,0.1198,0.1353,0.1426,0.1634,0.1672,0.1823,0.1912,0.192,0.1991,0.2002,0.1973,0.1949,0.1878,0.1848,0.1839,0.1837,0.1835,0.1859,0.1858,0.1858,0.1857,0,0.0706,0.0761,0.081,0.089,0.0968,0.1043,0.116,0.1203,0.139,0.1521,0.1636,0.1709,0.1807,0.1865,0.1896,0.1894,0.1953,0.1924,0.1928,0.1861,0.1833,0.1827,0.1827,0.1849,0.185,0.1851,0.1851,0,0.0647,0.0663,0.0743,0.0805,0.0889,0.0946,0.102,0.113,0.1224,0.1455,0.1492,0.1659,0.1795,0.1811,0.1841,0.1842,0.1801,0.1717,0.173,0.174,0.1678,0.1623,0.1571,0,0,0,0,0,0.0587,0.0605,0.0656,0.0726,0.0804,0.0858,0.099,0.1075,0.1254,0.1295,0.1394,0.149,0.158,0.1661,0.1635,0.1768,0.1792,0.1727,0.1697,0.1805,0.1814,0.1754,0,0,0,0,0,0,0.0547,0.059,0.0624,0.0652,0.0683,0.0768,0.0847,0.0969,0.1004,0.1188,0.1244,0.1382,0.1484,0.1574,0.16,0.1622,0.1568,0.1828,0.1823,0.1799,0.1808,0.1815,0.1757,0,0,0,0,0]},{"header":{"parameterUnit":"m.s-1","parameterCategory":2,"la1":30.2991,"la2":30.254,"lo1":-89.0895,"lo2":-89.0444,"dy":0.0017,"dx":0.0017,"nx":28,"ny":28,"refTime":"2023-10-19T09:00:00:Z","depth":"4","parameterNumber":3,"parameterNumberName":"V-component_of_CURRENTS"},"data":[0,0,0,0,0,0,0,0,0,0,0,0,0,0,0,0,0,0,0,0,0,0,0,0,0,0,0,0,0,0,0,0,0,0,0,0,0,0,0,0,0,0,0,0,0,0,0,0,0,0,0,0,0,0,0,0,0,0,0.0156,0.0155,0,0.0066,0.0065,0.0064,0.0035,0.0035,0.0036,0.0036,-0.0041,-0.0043,-0.0046,0,0,0,0,0,0,0,0,0,0,0,0,0,0.0265,0.0264,0.0156,0.0155,0.0154,0.0066,0.0065,0.0064,0.0035,0.0035,0.0036,0.0036,-0.004,-0.0043,-0.0046,0,0,0,0,0,0,0,0,0,0,0,0,0,0.0202,0.0264,0.0156,0.0128,0.0124,0.0066,0.0065,0.0063,0.0035,0.0035,0.0036,0.0036,-0.0039,-0.0043,-0.0046,-0.0076,0,0,-0.0057,-0.0058,0,0,0,0,0,0,0,0,0.0206,0.0199,0.0133,0.0129,0.0125,0.0061,0.0075,0.0017,0.0035,0.007,0.0036,0.0036,-0.0007,-0.0013,-0.0029,-0.008,-0.0083,-0.0057,-0.0059,-0.0061,-0.0062,0,0,0,0,0,0,0,0.0211,0.0202,0.0122,0.0132,0.0127,0.0106,0.0098,0.0064,0.0032,0.0067,0.0064,0.0052,-0.0009,-0.0026,-0.0031,-0.0084,-0.0057,-0.006,-0.0062,-0.0064,-0.0165,-0.0165,0,0,0,0,0,0,0.022,0.0206,0.0125,0.0119,0.0166,0.0104,0.0095,0.0082,0.0032,0.0024,0.0052,0.0051,-0.002,-0.0027,-0.0034,-0.0066,-0.0061,-0.0064,-0.0066,-0.0164,-0.0165,-0.0165,0,0,0,0,0,0,0.0223,0.0214,0.0128,0.016,0.0147,0.0102,0.0088,0.008,0.0062,0.002,0.0012,0.0041,-0.002,-0.0029,-0.0067,-0.0069,-0.0066,-0.0069,-0.0163,-0.0164,-0.0165,-0.0134,0,0,0,0,0,0,0.0226,0.0215,0.0208,0.016,0.0146,0.0093,0.0087,0.0078,0.0053,0.0051,0.0008,0.0001,-0.002,-0.0061,-0.007,-0.0074,-0.0071,-0.0163,-0.0164,-0.0165,-0.0134,-0.0133,-0.0133,0,0,0,0,0,0.0231,0.0212,0.0208,0.0198,0.0138,0.0092,0.0083,0.0053,0.0053,0.004,0.0013,0.0003,-0.0075,-0.0065,-0.0075,-0.008,-0.0162,-0.0163,-0.0165,-0.0134,-0.0133,-0.0133,0,0,0,0,0,0,0.0253,0.0206,0.0201,0.017,0.0137,0.0087,0.0067,0.0053,0.0021,0.0021,-0.001,-0.0019,-0.0053,-0.0075,-0.0063,-0.0113,-0.0119,-0.0122,-0.0092,-0.0092,-0.0091,-0.0078,-0.0074,0,0,0,0,0,0.0257,0.0231,0.019,0.0165,0.015,0.0113,0.0091,0.0073,0.0037,0.0024,-0.0005,-0.0037,-0.0068,-0.0085,-0.0118,-0.0148,-0.0179,-0.0157,-0.0157,-0.0156,-0.0153,-0.0214,-0.0219,-0.017,-0.017,-0.017,0,0,0.0256,0.0228,0.0213,0.0169,0.0141,0.0122,0.01,0.0066,0.0057,0.002,-0.0005,-0.0039,-0.0077,-0.0109,-0.0125,-0.0125,-0.0185,-0.0158,-0.0157,-0.0154,-0.0216,-0.0221,-0.0225,-0.0171,-0.0171,-0.0171,0,0,0.0241,0.0222,0.0198,0.0179,0.0141,0.0121,0.0114,0.0069,0.0056,0.0025,-0.0002,-0.0037,-0.0084,-0.0113,-0.0131,-0.015,-0.0182,-0.0159,-0.0144,-0.0204,-0.0208,-0.0212,-0.0249,-0.0257,-0.0157,-0.0157,-0.0157,0,0.0238,0.0218,0.0184,0.0168,0.0159,0.0126,0.0116,0.0092,0.0043,0.0032,0.0023,-0.0053,-0.0084,-0.0123,-0.0127,-0.0148,-0.0182,-0.014,-0.0202,-0.0207,-0.0212,-0.0249,-0.0258,-0.0155,-0.0155,-0.0155,-0.0156,0,0.0215,0.0207,0.0193,0.017,0.0155,0.0138,0.0113,0.0096,0.0081,0.0057,0.0013,-0.0038,-0.008,-0.0098,-0.0117,-0.0165,-0.0177,-0.0196,-0.02,-0.0215,-0.0253,-0.0263,-0.0153,-0.0154,-0.0154,-0.0154,0,0,0.0182,0.0177,0.0175,0.019,0.0163,0.0153,0.0138,0.0115,0.0112,0.0061,0.0043,-0.0017,-0.0047,-0.0071,-0.0109,-0.0159,-0.0219,-0.0187,-0.0191,-0.0215,-0.0341,-0.031,-0.0318,-0.0253,-0.0255,-0.0256,-0.035,0,0.0176,0.0177,0.0166,0.0179,0.0187,0.017,0.0166,0.0145,0.0119,0.0091,0.0033,-0.0001,-0.0036,-0.0057,-0.0114,-0.0195,-0.0246,-0.0191,-0.0329,-0.0333,-0.0298,-0.0329,-0.0262,-0.0358,-0.036,-0.0362,-0.0363,0,0.0161,0.0173,0.0191,0.0219,0.0218,0.0218,0.0221,0.021,0.0164,0.0145,0.0091,0.0041,-0.0035,-0.0063,-0.0209,-0.0174,-0.0252,-0.0316,-0.0321,-0.031,-0.0321,-0.0344,-0.0381,-0.038,-0.0378,-0.0377,-0.0376,0,0.0186,0.0193,0.0222,0.0229,0.0243,0.0249,0.025,0.0224,0.0229,0.0172,0.0164,0.006,0.0016,-0.0107,-0.0228,-0.0229,-0.0387,-0.0406,-0.0453,-0.0451,-0.0463,-0.0457,-0.0515,-0.0514,-0.0514,-0.0514,-0.0514,0,0.0199,0.0223,0.0241,0.0262,0.0303,0.0289,0.0313,0.0301,0.0276,0.0284,0.0194,0.0171,0.0,-0.0105,-0.0226,-0.0361,-0.039,-0.0454,-0.0479,-0.0446,-0.0438,-0.0469,-0.0463,-0.0517,-0.0517,-0.0516,-0.0515,0,0.0231,0.0239,0.0281,0.0306,0.0322,0.0351,0.0377,0.0387,0.036,0.0362,0.0348,0.0243,0.0103,-0.0059,-0.0258,-0.034,-0.0483,-0.0524,-0.046,-0.0478,-0.0509,-0.05,-0.0595,-0.0595,-0.0594,-0.0594,-0.0594,0,0.0254,0.0277,0.0327,0.0359,0.0374,0.0413,0.0441,0.0437,0.045,0.0413,0.0417,0.0289,0.0202,-0.0043,-0.0226,-0.0459,-0.0486,-0.0552,-0.055,-0.0506,-0.0521,-0.0512,-0.0503,-0.0594,-0.0594,-0.0594,-0.0594,0,0.0298,0.0309,0.0342,0.0408,0.045,0.0504,0.0538,0.0559,0.0549,0.0531,0.0479,0.0343,0.0189,-0.0023,-0.0199,-0.0367,-0.0509,-0.0551,-0.0553,-0.0552,-0.0506,-0.0519,-0.0511,-0.0593,-0.0593,-0.0593,-0.0594,0,0.0324,0.0353,0.0387,0.0446,0.0509,0.0563,0.0584,0.0594,0.0608,0.0567,0.055,0.0375,0.0268,0.0025,-0.0139,-0.03,-0.0347,-0.0388,-0.0399,-0.0402,-0.0318,-0.0231,-0.0258,0,0,0,0,0,0.0341,0.0365,0.042,0.0478,0.0542,0.0577,0.0633,0.0641,0.0641,0.0623,0.0588,0.0448,0.0199,0.0083,-0.0074,-0.0156,-0.0387,-0.0344,-0.0443,-0.0591,-0.0591,-0.0523,0,0,0,0,0,0,0.0345,0.039,0.0414,0.0493,0.0534,0.0604,0.0643,0.0646,0.0634,0.0612,0.0481,0.0418,0.0169,0.0284,-0.0077,-0.0128,-0.0207,-0.0465,-0.0468,-0.059,-0.0591,-0.0591,-0.0521,0,0,0,0,0]}]]